TimeCST,TemperatureF,Dew PointF,Humidity,Sea Level PressureIn,VisibilityMPH,Wind Direction,Wind SpeedMPH,Gust SpeedMPH,PrecipitationIn,Events,Conditions,WindDirDegrees,DateUTC
12:54 AM,41.0,36.0,82,30.48,10.0,NE,5.8,-,N/A,,Clear,50,2013-01-10 06:54:00
1:54 AM,43.0,35.1,74,30.48,10.0,ENE,5.8,-,N/A,,Clear,70,2013-01-10 07:54:00
2:54 AM,42.1,35.1,76,30.46,10.0,ENE,3.5,-,N/A,,Clear,60,2013-01-10 08:54:00
3:54 AM,43.0,34.0,71,30.43,10.0,ENE,5.8,-,N/A,,Overcast,60,2013-01-10 09:54:00
4:54 AM,43.0,34.0,71,30.41,10.0,ENE,4.6,-,0.00,Rain,Light Rain,70,2013-01-10 10:54:00
5:54 AM,43.0,34.0,71,30.37,10.0,ENE,10.4,-,0.01,Rain,Light Rain,60,2013-01-10 11:54:00
6:54 AM,44.1,35.1,71,30.37,10.0,East,4.6,-,0.00,Rain,Light Rain,80,2013-01-10 12:54:00
7:31 AM,46.4,35.6,66,30.36,10.0,East,6.9,-,N/A,Rain,Light Rain,90,2013-01-10 13:31:00
7:54 AM,45.0,36.0,71,30.38,10.0,East,5.8,-,0.01,Rain,Light Rain,90,2013-01-10 13:54:00
9:07 AM,44.6,37.4,76,30.35,5.0,East,6.9,-,0.00,Rain,Light Rain,80,2013-01-10 15:07:00
9:54 AM,45.0,39.9,82,30.34,5.0,East,5.8,-,0.07,Rain,Light Rain,90,2013-01-10 15:54:00
10:41 AM,46.4,42.8,87,30.30,9.0,East,6.9,-,0.00,Rain,Light Rain,80,2013-01-10 16:41:00
10:54 AM,46.0,43.0,89,30.30,6.0,East,8.1,-,0.01,Rain,Light Rain,90,2013-01-10 16:54:00
11:54 AM,48.0,45.0,89,30.25,3.0,Variable,6.9,-,0.03,Rain,Light Rain,0,2013-01-10 17:54:00
12:54 PM,50.0,46.0,86,30.21,7.0,ESE,8.1,-,0.00,Rain,Light Rain,120,2013-01-10 18:54:00
1:35 PM,51.8,48.2,88,30.19,4.0,ESE,8.1,-,0.00,Rain,Light Rain,110,2013-01-10 19:35:00
1:54 PM,52.0,48.0,86,30.18,2.0,East,8.1,-,0.03,Rain,Light Rain,100,2013-01-10 19:54:00
2:54 PM,53.1,50.0,89,30.17,4.0,ESE,5.8,-,0.01,,Overcast,110,2013-01-10 20:54:00
3:54 PM,55.0,52.0,89,30.13,5.0,East,5.8,-,0.00,,Overcast,90,2013-01-10 21:54:00
4:54 PM,55.9,53.1,90,30.09,5.0,East,8.1,-,N/A,,Overcast,100,2013-01-10 22:54:00
5:40 PM,57.2,53.6,88,30.07,10.0,East,4.6,-,N/A,,Overcast,80,2013-01-10 23:40:00
5:54 PM,57.0,54.0,89,30.07,6.0,East,5.8,-,N/A,,Overcast,90,2013-01-10 23:54:00
6:15 PM,57.2,55.4,94,30.04,10.0,East,8.1,-,N/A,,Overcast,100,2013-01-11 00:15:00
6:28 PM,60.8,55.4,82,30.02,10.0,ESE,10.4,18.4,N/A,,Scattered Clouds,110,2013-01-11 00:28:00
6:54 PM,59.0,55.0,87,30.02,10.0,East,8.1,-,N/A,,Mostly Cloudy,90,2013-01-11 00:54:00
7:54 PM,60.1,55.9,86,30.01,10.0,ESE,6.9,-,N/A,,Overcast,120,2013-01-11 01:54:00
8:54 PM,59.0,55.9,90,30.00,10.0,East,8.1,-,N/A,,Overcast,100,2013-01-11 02:54:00
9:01 PM,59.0,55.4,88,29.99,10.0,East,6.9,-,N/A,,Overcast,90,2013-01-11 03:01:00
9:54 PM,59.0,55.0,87,29.99,5.0,ESE,4.6,-,0.02,Rain,Rain,110,2013-01-11 03:54:00
10:17 PM,60.8,57.2,88,29.97,5.0,ESE,8.1,-,0.07,Rain,Rain,120,2013-01-11 04:17:00
10:54 PM,61.0,57.9,90,29.94,5.0,ESE,8.1,-,0.14,Rain,Rain,120,2013-01-11 04:54:00
11:54 PM,61.0,57.9,90,29.91,3.0,SE,13.8,-,0.08,Rain,Heavy Rain,130,2013-01-11 05:54:00